{"data":{"norad_id":63197,"intl_designator":"2025-048Q","name":"STARLINK-32960","alt_names":[],"object_type":"PAYLOAD","status":"ACTIVE","operator":null,"country":"US","launch_date":"2025-03-13","launch_site_code":"AFETR","launch_vehicle":null,"mission":null,"orbit_class":"UNKNOWN","rcs_meters":null,"size_class":null,"mass_kg":null,"dimensions":null,"purposes":["comms"],"wikipedia_slug":null,"has_3d_model":false,"image_url":null,"decayed_at":null,"tle_current":{"epoch":"2026-05-25T00:25:38.114400Z","epoch_age_seconds":67388,"freshness":"FRESH","line1":"1 63197U 25048Q   26145.01780225  .00012256  00000+0  45400-3 0  9999","line2":"2 63197  43.0037  14.4229 0001117 261.5210  98.5515 15.27592254 68766","mean_motion":15.27592254,"eccentricity":0.0001117,"inclination_deg":43.0037,"raan_deg":14.4229,"arg_perigee_deg":261.521,"mean_anomaly_deg":98.5515,"bstar":0.000454,"rev_number":6876,"period_min":94.265992527087,"perigee_km":482.24601301222,"apogee_km":483.77879378894,"semimajor_km":6861.1494034006,"source":"CELESTRAK","updated_at":"2026-05-25T13:38:19.922018Z"}}}